(221493) = 2006 CC41

Discovered at Kitt Peak on 2006-02-02 by Spacewatch.

Orbit

Orbit type: Main Belt

Note: WebGL enabled browser required.

epoch2024-03-31.0
epoch JD2460400.5
perihelion date2023-03-19.85158
perihelion JD2460023.35158
argument of perihelion (°)275.18989
ascending node (°)222.16888
inclination (°)4.13188
eccentricity0.1233565
perihelion distance (AU)2.8216310
Tisserand w.r.t. Jupiter3.2
ΔV w.r.t. Earth (km/sec)10.5
semimajor axis (AU)3.2186753
mean anomaly (°)64.37250
mean daily motion (°/day)0.17068210
aphelion distance (AU)3.616
period (years)5.77
P-vector [x]-0.73387205
P-vector [y]0.64829053
P-vector [z]0.20285760
Q-vector [x]-0.67756340
Q-vector [y]-0.67734144
Q-vector [z]-0.28655963
absolute magnitude15.19
phase slope0.15
uncertainty0
referenceMPEC 2024-F14
observations used611
oppositions18
arc length (days)9253
first opposition used1998
last opposition used2024
residual rms (arc-secs)0.67
perturbers coarse indicatorM-v
perturbers precise indicator003Ek
first observation date used1998-11-16.0
last observation date used2024-03-17.0
computer nameMPCLINUX
JD of orbit computation2456937.256103
perihelion JD uncertainty (days)1.9624E-04
argument of perihelion uncertainty (°)8.3617E-05
ascending node uncertainty (°)7.8751E-05
inclination uncertainty (°)4.7409E-06
eccentricity uncertainty 8.6577E-08
perihelion distance uncertainty (AU)2.6004E-07
Minimum Orbit Intersection Distances (in AU)
for orbit epoch: 2460400.5, reference: E2024-GB3
Mercury2.48124
Venus2.11049
Earth1.83959
Mars1.1827
Jupiter1.45468
Saturn5.98006
Uranus15.5573
Neptune26.3994

Observations

630 total observations over interval: 1998 11 16.36506 – 2024 03 17.596900
These data are available for download (format description).

Date (UT) J2000 RA J2000 Dec Magn Location Ref
1998 11 16.36506 03 30 20.58 +17 46 18.3 19.3 V 691 – Steward Observatory, Kitt Peak-Spacewatch MPS 166209
1998 11 16.38676 03 30 19.49 +17 46 12.9 19.5 V 691 – Steward Observatory, Kitt Peak-Spacewatch MPS 166209
1998 11 16.40856 03 30 18.41 +17 46 07.5 19.3 V 691 – Steward Observatory, Kitt Peak-Spacewatch MPS 166209
1998 11 23.21832 03 24 49.54 +17 18 33.8 19.6 V 691 – Steward Observatory, Kitt Peak-Spacewatch MPS 166209
1998 11 23.24055 03 24 48.46 +17 18 28.6 19.5 V 691 – Steward Observatory, Kitt Peak-Spacewatch MPS 166209
1998 11 23.26253 03 24 47.36 +17 18 23.4 19.3 V 691 – Steward Observatory, Kitt Peak-Spacewatch MPS 166209
1998 11 27.28703 03 21 38.93 +17 02 25.4 19.5 V 691 – Steward Observatory, Kitt Peak-Spacewatch MPS 178579
1998 11 27.33097 03 21 36.87 +17 02 16.8 19.4 V 691 – Steward Observatory, Kitt Peak-Spacewatch MPS 178579
2000 02 06.32074 09 53 19.19 +06 19 09.8 18.9   704 – Lincoln Laboratory ETS, New Mexico MPS 166209
2000 02 06.33550 09 53 18.58 +06 19 11.9 19.3   704 – Lincoln Laboratory ETS, New Mexico MPS 166209
2000 02 06.35023 09 53 17.76 +06 19 16.7 19.4   704 – Lincoln Laboratory ETS, New Mexico MPS 166209
2000 02 06.36498 09 53 17.16 +06 19 19.0 19.1   704 – Lincoln Laboratory ETS, New Mexico MPS 166209
2000 02 06.37998 09 53 16.39 +06 19 22.6 18.9   704 – Lincoln Laboratory ETS, New Mexico MPS 166209
2003 09 27.20545 23 39 33.39 +02 14 45.1 20.3 V 691 – Steward Observatory, Kitt Peak-Spacewatch MPS 166209
2003 09 27.23549 23 39 32.12 +02 14 35.8 20.4 V 691 – Steward Observatory, Kitt Peak-Spacewatch MPS 166209
2003 09 27.26825 23 39 30.78 +02 14 25.4 20.3 V 691 – Steward Observatory, Kitt Peak-Spacewatch MPS 166209
2003 10 17.09216 23 27 54.44 +00 35 43.8 21.1 V 691 – Steward Observatory, Kitt Peak-Spacewatch MPS 166209
2003 10 17.12025 23 27 53.65 +00 35 36.2 20.9 V 691 – Steward Observatory, Kitt Peak-Spacewatch MPS 166209
2003 10 17.15336 23 27 52.69 +00 35 27.5 21.1 V 691 – Steward Observatory, Kitt Peak-Spacewatch MPS 166209
2003 10 19.196730 23 26 57.714 +00 26 37.06 20.40 V 645 – Apache Point-Sloan Digital Sky Survey MPS 166209
2003 10 19.200202 23 26 57.619 +00 26 36.16 21.11   645 – Apache Point-Sloan Digital Sky Survey MPS 166209
2003 10 22.188160 23 25 44.578 +00 14 20.86 20.44 V 645 – Apache Point-Sloan Digital Sky Survey MPS 166209
2003 10 22.191632 23 25 44.492 +00 14 20.00 21.03   645 – Apache Point-Sloan Digital Sky Survey MPS 166209
2004 12 14.20269 04 25 40.43 +18 38 43.1 18.8 C 704 – Lincoln Laboratory ETS, New Mexico MPS 294437
2004 12 14.22880 04 25 38.92 +18 38 40.2 17.8 C 704 – Lincoln Laboratory ETS, New Mexico MPS 294437
2004 12 14.24183 04 25 38.77 +18 38 38.5 17.9 C 704 – Lincoln Laboratory ETS, New Mexico MPS 294437
2004 12 14.25486 04 25 37.83 +18 38 37.0 20.3 C 704 – Lincoln Laboratory ETS, New Mexico MPS 294437
2006 02 02.44320 11 14 11.57 -00 50 30.9 19.8 V 691 – Steward Observatory, Kitt Peak-Spacewatch MPS 163365
2006 02 02.45555 11 14 11.25 -00 50 29.7 19.8 V 691 – Steward Observatory, Kitt Peak-Spacewatch MPS 163365
2006 02 02.46062 11 14 11.14 -00 50 28.9 19.8 V 691 – Steward Observatory, Kitt Peak-Spacewatch MPS 163365
2006 02 02.47297 11 14 10.81 -00 50 27.8 19.9 V 691 – Steward Observatory, Kitt Peak-Spacewatch MPS 163365
2006 02 02.47796 11 14 10.67 -00 50 27.2 19.9 V 691 – Steward Observatory, Kitt Peak-Spacewatch MPS 163365
2006 02 02.49028 11 14 10.36 -00 50 25.9 20.0 V 691 – Steward Observatory, Kitt Peak-Spacewatch MPS 163365
2006 02 06.45262 11 12 26.32 -00 42 12.7   691 – Steward Observatory, Kitt Peak-Spacewatch MPS 163365
2006 02 06.46999 11 12 25.78 -00 42 10.2   691 – Steward Observatory, Kitt Peak-Spacewatch MPS 163365
2006 02 06.48731 11 12 25.27 -00 42 07.8   691 – Steward Observatory, Kitt Peak-Spacewatch MPS 163365
2006 02 26.34464 11 00 07.67 +00 32 11.6 18.7   704 – Lincoln Laboratory ETS, New Mexico MPS 166209
2006 02 26.35641 11 00 07.15 +00 32 15.9 18.7   704 – Lincoln Laboratory ETS, New Mexico MPS 166209
2006 02 26.36818 11 00 06.64 +00 32 18.3 19.1   704 – Lincoln Laboratory ETS, New Mexico MPS 166209
2006 03 09.20524 10 52 13.82 +01 28 39.7 18.4 R 699 – Lowell Observatory-LONEOS MPS 178579
2006 03 09.23082 10 52 12.78 +01 28 48.7   699 – Lowell Observatory-LONEOS MPS 178579
2006 03 09.25638 10 52 11.61 +01 28 55.0   699 – Lowell Observatory-LONEOS MPS 178579
2006 03 09.28201 10 52 10.40 +01 29 04.2   699 – Lowell Observatory-LONEOS MPS 178579
2007 05 25.37157 16 22 27.19 -19 11 12.1 19.3 V G96 – Mt. Lemmon Survey MPS 210449
2007 05 25.37732 16 22 26.90 -19 11 10.9 19.3 V G96 – Mt. Lemmon Survey MPS 210449
2007 05 25.38311 16 22 26.65 -19 11 10.1 19.3 V G96 – Mt. Lemmon Survey MPS 210449
2007 05 25.38875 16 22 26.36 -19 11 09.1 19.5 V G96 – Mt. Lemmon Survey MPS 210449
2008 07 28.96810 20 40 59.17 -12 22 33.1 19.6 V J75 – OAM Observatory, La Sagra MPS 254028
2008 07 28.98197 20 40 58.53 -12 22 35.7 19.8 V J75 – OAM Observatory, La Sagra MPS 254028
2008 07 28.99581 20 40 57.91 -12 22 38.7 19.6 V J75 – OAM Observatory, La Sagra MPS 254028
2009 09 20.19179 00 36 15.32 +07 33 05.9 20.4 V 691 – Steward Observatory, Kitt Peak-Spacewatch MPS 295879
2009 09 20.20942 00 36 14.62 +07 33 01.2 20.4 V 691 – Steward Observatory, Kitt Peak-Spacewatch MPS 295879
2009 09 20.22704 00 36 13.91 +07 32 56.3 20.1 V 691 – Steward Observatory, Kitt Peak-Spacewatch MPS 295879
2009 09 23.18426 00 34 15.30 +07 18 44.8 20.2 V 691 – Steward Observatory, Kitt Peak-Spacewatch MPS 295879
2009 09 23.20192 00 34 14.60 +07 18 39.8 20.3 V 691 – Steward Observatory, Kitt Peak-Spacewatch MPS 295879
2009 09 23.21957 00 34 13.82 +07 18 34.5 20.0 V 691 – Steward Observatory, Kitt Peak-Spacewatch MPS 295879
2009 09 26.18242 00 32 12.09 +07 03 46.2 20.2 V 691 – Steward Observatory, Kitt Peak-Spacewatch MPS 296964
2009 09 26.20003 00 32 11.38 +07 03 40.9 20.0 V 691 – Steward Observatory, Kitt Peak-Spacewatch MPS 296964
2009 09 26.21764 00 32 10.60 +07 03 35.7 19.9 V 691 – Steward Observatory, Kitt Peak-Spacewatch MPS 296964
2010 12 12.25654 05 46 17.36 +19 16 02.9 19.3   704 – Lincoln Laboratory ETS, New Mexico MPS 362511
2010 12 12.28283 05 46 15.94 +19 16 00.3 19.4   704 – Lincoln Laboratory ETS, New Mexico MPS 362511
2010 12 12.29596 05 46 15.27 +19 16 00.2 19.6   704 – Lincoln Laboratory ETS, New Mexico MPS 362511
2010 12 12.30946 05 46 14.58 +19 15 58.7 20.0   704 – Lincoln Laboratory ETS, New Mexico MPS 362511
2011 12 04.59964 11 51 59.089 -02 56 23.54 21.0 w F51 – Pan-STARRS 1, Haleakala MPS 403676
2011 12 04.60427 11 51 59.369 -02 56 25.66 21.1 w F51 – Pan-STARRS 1, Haleakala MPS 403676
2011 12 04.60889 11 51 59.660 -02 56 27.63 21.1 w F51 – Pan-STARRS 1, Haleakala MPS 403676
2011 12 04.61354 11 51 59.935 -02 56 29.76 21.0 w F51 – Pan-STARRS 1, Haleakala MPS 403676
2012 02 22.41824 12 23 15.28 -07 04 53.9 19.6 V 703 – Catalina Sky Survey MPS 413998
2012 02 22.42706 12 23 15.10 -07 04 53.1 19.4 V 703 – Catalina Sky Survey MPS 413998
2012 02 22.43594 12 23 14.71 -07 04 52.7 18.8 V 703 – Catalina Sky Survey MPS 413998
2012 02 22.44485 12 23 14.60 -07 04 50.1 19.1 V 703 – Catalina Sky Survey MPS 413998
2012 02 27.47813 12 20 56.332 -06 50 01.18 19.9 w F51 – Pan-STARRS 1, Haleakala MPS 415902
2012 02 27.49292 12 20 55.865 -06 49 58.23 19.7 w F51 – Pan-STARRS 1, Haleakala MPS 415902
2012 02 27.50770 12 20 55.393 -06 49 55.29 19.6 w F51 – Pan-STARRS 1, Haleakala MPS 415902
2012 02 27.52244 12 20 54.924 -06 49 52.34 19.7 w F51 – Pan-STARRS 1, Haleakala MPS 415902
2012 02 28.49540 12 20 25.088 -06 46 34.03 19.6 r F51 – Pan-STARRS 1, Haleakala MPS 415902
2012 02 28.50523 12 20 24.760 -06 46 31.97 19.6 r F51 – Pan-STARRS 1, Haleakala MPS 415902
2012 03 16.39172 12 09 47.91 -05 30 14.0 19.0 V G96 – Mt. Lemmon Survey MPS 417044
2012 03 16.39865 12 09 47.62 -05 30 11.7 19.0 V G96 – Mt. Lemmon Survey MPS 417044
2012 03 16.40556 12 09 47.34 -05 30 09.4 19.1 V G96 – Mt. Lemmon Survey MPS 417044
2012 03 16.41251 12 09 47.01 -05 30 07.2 19.2 V G96 – Mt. Lemmon Survey MPS 417044
2012 03 17.20371 12 09 13.80 -05 25 50.2 19.5 V 691 – Steward Observatory, Kitt Peak-Spacewatch MPS 418260
2012 03 17.22141 12 09 13.02 -05 25 44.6 19.5 V 691 – Steward Observatory, Kitt Peak-Spacewatch MPS 418260
